EHI
6 7 8 6 5 8 16 28 35 36 34 26 17 11 7 4 3 3 3 3 3 3 3 3 3 3 3 3 3 3 3 3 3 3 3 3 3 3 3 3 3 3 3
9 9 9 7 6 10 18 29 36 38 34 25 16 11 7 4 3 3 3 3 3 3 3 3 3 3 3 3 3 3 3 3 3 3 3 3 3 3 3 3 4 3 3
11 10 8 8 8 11 18 28 35 36 31 23 15 9 5 3 3 3 3 3 3 3 3 3 3 3 3 3 3 3 3 3 3 3 3 3 3 3 3 4 4 4 3
11 9 8 9 10 11 15 22 29 30 26 20 13 7 4 3 3 3 3 3 3 3 3 3 3 3 3 3 3 3 3 3 3 3 3 3 3 3 3 3 4 3 3
10 8 9 10 9 9 10 15 21 22 20 17 11 6 4 3 3 3 3 3 3 3 3 3 3 3 3 3 3 3 3 3 4 3 3 3 3 3 3 3 3 3 3
7 7 9 9 8 8 9 12 15 15 15 13 9 6 4 3 3 3 3 3 3 3 3 3 3 3 3 3 3 3 3 4 4 4 3 3 3 3 3 3 3 3 3
6 7 8 8 6 7 9 12 14 13 11 9 7 4 3 3 3 3 3 3 3 3 3 3 3 3 3 3 3 3 3 3 4 3 3 3 3 3 3 3 3 3 3
6 7 9 7 6 7 9 12 14 13 10 6 4 3 3 3 3 3 3 3 3 3 4 4 4 3 3 3 3 3 3 3 3 3 3 3 3 3 3 3 3 3 3
6 7 8 7 6 6 9 11 14 13 9 6 4 3 3 3 3 3 3 4 4 4 4 5 5 4 3 3 3 3 3 3 3 3 3 3 4 3 3 3 3 3 3
7 7 8 8 8 7 7 8 11 11 8 5 4 3 3 3 3 4 5 6 5 4 4 4 5 4 3 3 3 3 3 3 3 3 4 5 5 4 3 3 3 3 3
10 9 9 10 9 7 5 5 7 8 7 5 3 3 3 3 4 6 8 8 6 5 4 4 4 3 3 3 3 3 3 3 3 3 4 6 6 4 3 3 3 3 3
14 11 9 10 11 10 7 6 6 7 6 4 3 3 4 5 5 7 8 6 4 3 3 4 4 3 3 4 3 3 3 3 3 3 5 7 5 3 3 3 3 3 3
15 11 9 11 12 12 11 9 8 8 7 5 4 4 5 6 7 6 5 5 3 2 2 3 3 2 3 3 2 2 2 3 3 4 6 8 6 4 3 3 3 3 3
14 13 12 13 14 13 13 11 10 9 8 7 6 4 4 6 7 7 6 4 2 2 1 1 1 1 1 1 1 1 1 2 3 4 6 7 7 5 4 3 3 4 4
14 14 14 15 15 15 15 13 11 9 7 6 5 5 5 6 8 7 5 3 1 1 1 0 0 0 0 0 0 0 1 1 1 2 2 3 4 6 5 4 4 4 5
16 15 15 14 14 14 13 13 10 7 6 5 5 6 6 6 6 4 2 1 0 0 0 0 0 0 0 0 0 0 0 0 0 0 0 0 1 4 6 5 4 5 5
20 19 15 11 11 11 10 9 6 4 5 6 7 7 6 5 4 2 1 0 0 0 0 0 0 0 0 0 0 0 0 0 0 0 0 0 0 2 5 6 5 6 6
20 19 14 9 9 10 9 7 5 4 5 8 9 7 5 3 2 2 1 0 0 0 0 0 0 0 0 0 0 0 0 0 0 0 0 0 0 1 3 5 5 5 5
14 14 13 10 10 11 11 9 8 6 7 9 9 7 4 2 2 2 1 0 0 0 0 0 0 0 0 0 0 0 0 0 0 0 0 0 0 0 1 3 4 4 4
10 11 12 12 13 14 13 12 10 8 7 7 7 6 4 3 2 2 1 1 1 0 0 0 0 0 0 0 0 0 0 0 0 0 0 0 0 0 0 2 3 3 3
8 10 12 15 15 15 15 13 11 7 5 5 5 5 4 3 3 3 2 2 2 1 0 0 0 0 0 0 0 0 0 0 0 0 0 0 0 0 0 1 2 2 2
9 10 13 17 17 16 16 13 9 7 6 6 5 4 3 3 3 3 3 3 3 2 1 0 0 0 0 0 0 0 0 0 0 0 0 0 0 0 0 1 1 1 1
10 11 14 18 18 16 15 11 7 7 7 7 6 5 4 3 3 3 3 3 3 2 1 0 0 0 0 0 0 0 0 0 0 0 0 0 0 0 0 0 0 0 0
12 13 18 21 19 15 12 9 7 6 6 6 5 5 4 3 3 3 3 3 3 3 1 1 0 0 0 0 0 0 0 0 0 0 0 0 0 0 0 0 0 0 0
13 16 21 23 20 15 11 9 7 5 5 5 5 5 4 3 3 3 3 3 3 3 3 2 1 0 0 0 0 0 0 0 0 0 0 0 0 0 0 0 0 0 0
14 17 22 23 19 15 12 10 7 5 5 5 5 5 4 3 3 3 3 3 3 3 3 3 2 1 0 0 0 0 0 0 0 0 0 0 0 0 0 0 0 0 0
Wind_Speed
14 16 16 13 13 13 14 14 14 14 13 13 13 12 11 11 10 10 9 9 9 9 10 9 9 9 9 9 9 9 8 8 9 9 10 10 11 12 11 10 10 12 14
16 18 17 14 14 13 14 14 14 14 13 13 12 12 11 10 10 9 9 9 8 9 9 9 9 9 9 9 9 8 8 8 8 9 9 11 11 11 9 6 6 12 13
18 18 18 14 14 13 13 13 13 13 13 13 12 11 11 10 10 9 9 8 8 9 9 9 9 9 9 9 8 8 8 8 8 7 7 8 11 10 9 9 12 13 12
19 18 17 16 14 14 13 13 13 13 13 12 11 11 10 9 9 9 8 8 8 9 8 8 9 9 8 8 8 7 7 7 6 5 4 7 10 11 9 10 11 12 12
17 16 17 17 15 14 14 13 13 13 12 11 11 10 10 9 8 8 8 8 8 8 8 8 8 8 7 7 7 6 6 6 4 5 6 6 8 10 9 10 11 11 11
17 16 18 16 15 14 14 13 13 12 12 11 10 10 9 8 8 8 7 7 7 7 7 7 7 7 6 6 6 5 5 3 7 4 5 5 8 9 9 10 10 11 11
17 16 18 16 15 14 14 13 12 12 11 10 10 9 8 7 7 7 6 6 6 6 6 6 6 6 5 5 5 4 3 2 3 4 4 5 9 9 9 9 9 10 10
16 16 17 16 15 14 14 13 12 11 11 10 9 8 7 6 6 6 5 5 5 5 5 5 5 5 4 4 4 3 2 5 3 4 4 6 10 7 8 8 9 9 9
15 15 15 16 14 14 12 12 12 11 10 9 8 7 7 6 5 5 4 4 4 4 4 4 3 3 3 2 2 2 1 4 5 3 4 5 9 7 7 8 8 9 9
13 13 13 13 13 13 13 12 11 10 9 9 8 7 6 6 6 5 5 4 3 3 3 2 2 2 2 2 1 1 1 6 5 3 3 7 9 7 8 8 8 9 9
12 11 12 12 11 11 11 12 11 10 9 9 8 7 6 6 6 6 4 4 2 2 2 2 2 3 3 5 3 2 6 6 3 1 2 10 8 8 8 9 9 9 9
13 12 11 11 11 10 8 9 7 8 8 6 5 6 4 2 1 1 7 3 2 2 3 3 3 5 7 5 6 7 5 5 4 3 4 9 7 8 9 10 10 10 9
13 12 12 10 10 9 6 6 4 4 5 5 5 4 2 2 2 1 2 3 3 3 3 4 5 3 2 1 3 3 3 4 3 3 5 7 5 8 9 10 10 10 10
12 12 11 11 9 8 6 5 5 4 4 4 4 3 3 2 1 1 0 0 1 0 0 1 1 1 2 2 3 4 4 3 3 2 3 5 3 6 8 10 10 11 11
12 12 10 10 9 8 6 4 5 4 4 4 3 3 2 2 1 1 1 1 1 1 1 1 1 1 2 2 3 3 4 3 3 4 1 5 3 4 6 9 11 11 11
12 11 11 10 9 8 6 4 4 4 3 3 3 4 2 2 2 2 2 1 1 1 3 2 1 1 2 1 2 2 4 3 2 3 4 4 6 5 5 7 10 12 12
11 10 10 10 9 8 7 6 5 4 5 4 4 4 3 3 3 2 2 1 2 2 1 1 1 1 1 1 1 2 2 3 3 3 4 4 4 8 7 7 8 10 12
9 9 9 8 9 8 7 6 5 5 5 5 5 5 4 3 3 1 1 2 2 1 1 1 1 2 1 2 1 2 2 2 3 4 4 4 4 4 7 8 7 8 11
9 9 8 7 8 8 8 6 6 5 5 5 5 5 5 4 3 2 2 3 0 1 1 2 2 3 2 3 2 1 2 2 2 3 3 4 3 4 4 6 8 7 10
9 9 8 8 8 8 7 6 6 6 5 5 5 5 5 4 4 2 3 2 1 1 1 2 2 2 3 3 4 1 2 1 1 1 3 2 2 4 4 3 5 7 10
10 10 10 10 9 8 7 7 7 7 6 5 5 6 6 5 5 2 2 3 0 2 2 2 1 0 1 3 3 2 2 2 1 1 2 2 2 2 1 2 3 3 4
11 11 10 10 10 9 7 6 5 6 5 5 5 6 6 5 5 4 2 2 2 2 2 2 2 3 2 2 4 3 2 4 3 2 1 2 3 2 0 1 0 1 3
12 12 10 11 10 10 10 7 6 5 5 6 6 6 6 6 5 3 3 1 1 1 2 0 1 2 2 1 3 4 4 1 1 3 2 2 2 3 2 1 1 1 2
13 12 11 11 11 10 10 9 10 7 6 6 6 6 7 6 6 5 4 3 2 1 1 2 1 1 2 1 1 1 4 5 4 0 3 2 1 1 3 3 2 1 1
13 12 12 12 11 11 10 10 9 7 6 5 6 7 7 6 6 5 5 4 3 2 1 0 1 2 1 2 2 1 1 1 4 5 2 1 1 0 1 2 2 2 2
13 12 12 13 12 12 11 11 10 8 7 7 7 7 7 6 6 6 6 4 4 3 3 3 2 2 1 2 3 2 2 2 3 3 4 4 3 2 2 2 2 2 2
Wind_Direction
155 145 144 150 146 142 138 135 134 132 131 129 127 125 122 120 116 113 111 105 100 97 93 91 90 89 87 86 89 93 95 99 104 108 110 109 110 113 117 129 139 115 116
149 144 147 152 149 145 141 136 133 131 129 128 125 123 121 119 116 113 109 105 101 96 93 91 89 88 88 88 89 93 97 101 107 113 122 121 114 116 120 123 96 110 123
148 145 152 153 150 146 142 137 133 131 129 127 125 123 122 120 118 114 110 104 101 97 94 91 88 86 86 86 88 92 97 101 106 125 167 137 118 119 120 111 106 120 124
149 149 155 151 152 148 143 138 135 134 131 129 128 125 122 119 117 115 110 105 100 99 98 95 90 87 84 83 85 91 97 102 115 190 173 114 121 118 125 123 122 126 126
148 149 145 154 154 151 147 142 140 139 136 134 131 129 125 120 116 113 109 107 102 98 96 96 93 90 86 83 85 89 97 110 159 227 98 102 106 121 130 130 129 129 129
149 153 145 157 155 153 149 147 145 143 141 138 135 132 129 125 119 115 112 110 105 102 98 95 93 91 87 82 81 88 102 141 221 121 111 121 113 128 135 136 135 134 133
154 152 146 157 155 154 152 150 148 145 142 140 137 135 131 126 123 121 115 112 110 108 107 104 99 94 87 81 79 82 105 240 259 109 127 115 107 131 143 143 140 138 137
154 152 144 155 156 155 153 151 150 146 144 142 141 141 137 130 125 123 122 120 120 116 114 114 109 103 93 81 78 80 92 272 200 133 132 113 111 144 151 150 149 146 143
157 152 153 159 158 156 152 151 149 147 147 145 144 142 140 136 132 131 130 133 130 123 123 126 124 119 110 91 76 76 55 300 271 141 149 121 130 158 162 158 160 158 155
159 157 158 162 159 162 158 153 150 149 150 149 147 147 145 149 151 152 175 143 145 148 143 143 147 150 140 139 131 139 236 253 248 174 155 123 144 174 176 173 171 170 167
161 160 162 158 160 163 159 151 158 156 155 160 160 156 184 187 166 175 118 120 150 151 147 163 176 175 201 182 177 208 238 248 226 242 137 114 158 189 190 185 182 180 178
165 167 163 164 160 166 161 152 165 167 158 179 154 167 186 145 143 115 111 135 153 159 175 168 191 201 230 208 173 204 237 244 258 216 124 128 175 201 202 195 191 190 188
167 170 165 164 164 169 157 161 159 154 152 164 151 161 148 154 157 172 150 161 177 199 211 167 209 237 249 293 289 245 266 265 258 249 124 135 193 213 210 203 199 198 197
171 172 168 163 167 169 164 157 161 161 158 152 144 175 150 146 152 119 157 124 218 242 327 274 259 257 274 263 271 281 263 261 273 281 113 128 210 226 217 206 205 207 205
173 173 169 168 166 164 161 172 156 152 146 142 141 136 150 157 142 114 77 23 343 357 222 255 288 287 274 256 258 265 282 279 280 280 182 147 203 236 224 210 207 210 211
177 173 169 173 167 164 163 164 148 149 140 141 139 127 144 126 116 121 126 71 33 7 15 341 348 297 290 304 274 280 281 289 274 279 278 189 191 211 223 218 213 210 212
174 170 169 172 168 167 163 166 157 158 151 141 128 131 138 130 119 118 103 113 48 37 48 337 327 291 276 269 278 291 273 282 292 280 279 281 223 197 206 217 218 212 210
167 161 170 175 165 165 164 166 159 154 147 142 139 137 133 118 122 131 102 78 56 2 358 20 310 314 341 306 305 303 294 261 261 268 263 255 269 253 200 199 212 213 214
170 163 168 169 164 163 161 159 152 146 147 143 144 141 138 136 130 129 82 72 42 20 3 336 37 329 340 333 296 256 285 274 279 269 282 274 262 260 253 179 194 211 218
174 172 171 167 166 163 158 152 150 150 153 153 147 138 146 142 138 131 116 95 4 51 40 36 23 1 324 323 306 334 297 322 293 338 286 276 269 263 256 248 211 205 210
178 174 174 171 168 166 164 167 164 164 163 158 155 148 154 146 141 149 116 120 28 69 33 25 331 204 334 337 286 244 173 151 69 50 356 338 354 320 284 240 242 250 200
184 177 174 174 174 178 172 167 166 156 163 155 152 150 162 159 163 166 151 161 119 113 102 57 354 330 17 356 317 286 213 167 163 90 57 44 15 5 9 84 67 226 261
184 181 179 176 175 180 169 162 154 153 164 162 165 167 171 173 176 168 175 179 158 225 112 86 327 336 342 21 1 326 312 6 112 141 93 57 25 10 21 45 50 13 275
183 180 179 174 176 176 174 176 177 182 182 175 177 167 170 181 182 181 186 186 209 227 142 210 87 312 306 327 99 7 353 357 311 220 173 139 104 16 14 349 21 49 352
183 178 176 175 177 177 183 182 188 192 184 171 174 161 181 177 188 188 191 194 199 215 176 274 152 290 293 324 333 332 356 247 273 292 303 306 259 244 358 317 340 342 6
180 178 176 177 179 180 186 188 196 191 184 176 183 174 189 180 189 188 195 197 204 205 187 203 208 203 300 337 317 320 308 308 310 308 298 286 295 303 316 308 279 294 315